Change the Weather History Date:

Sunday, January 6, 2013

  Actual Average Record
Temperature  
Mean Temperature 21 °F -  
Max Temperature 32 °F 36 °F 60 °F (2015)
Min Temperature 8 °F 13 °F -9 °F (1949)
Degree Days  
Heating Degree Days 44    
Moisture  
Dew Point 17 °F    
Average Humidity 85    
Maximum Humidity 100    
Minimum Humidity 55    
Precipitation  
Precipitation 0.00 in - - ()
Sea Level Pressure  
Sea Level Pressure 30.07 in    
Wind  
Wind Speed 1 mph (East)    
Max Wind Speed 8 mph    
Max Gust Speed -    
Visibility 7 miles    
Events Fog , Snow    
Averages and records for this station are not official NWS values.
T = Trace of Precipitation, MM = Missing Value Source: NWS Daily Summary

Daily Weather History Graph

Daily Weather History Graph

Search for Another Location

Airport or City:

Trip Planner

Search our weather history database for the weather conditions in past years. The results will help you decide how hot, cold, wet, or windy it might be!

Date:

Astronomy

Jan. 06, 2013 Rise Set
Actual Time 7:20 AM PST 4:52 PM PST
Civil Twilight 6:50 AM PST 5:22 PM PST
Nautical Twilight 6:17 AM PST 5:56 PM PST
Astronomical Twilight 5:44 AM PST 6:28 PM PST
Moon 1:41 AM PST (1/6) 12:22 PM PST (1/6)
Length of Visible Light 10h 31m
Length of Day
9h 32m
Waning Crescent, 32% of the Moon is Illuminated
Jan 6
Waning Crescent
Jan 11
New
Jan 18
First Quarter
Jan 26
Full
Feb 3
Last Quarter

Hourly Weather History & Observations

Time (PST) Temp. Windchill Dew Point Humidity Pressure Visibility Wind Dir Wind Speed Gust Speed Precip Events Conditions
12:15 AM 19.4 °F - 15.8 °F 86% 30.02 in 7.0 mi Calm Calm - N/A   Partly Cloudy
12:35 AM 19.4 °F 14.3 °F 17.6 °F 93% 30.02 in 7.0 mi North 3.5 mph - N/A   Partly Cloudy
12:55 AM 19.4 °F - 15.8 °F 86% 30.02 in 5.0 mi Calm Calm - N/A   Scattered Clouds
1:15 AM 17.6 °F - 17.6 °F 100% 30.03 in 3.0 mi Calm Calm - N/A   Partly Cloudy
1:35 AM 17.6 °F - 15.8 °F 93% 30.02 in 3.0 mi Calm Calm - N/A   Mostly Cloudy
1:55 AM 15.8 °F - 14.0 °F 93% 30.03 in 3.0 mi Calm Calm - N/A   Overcast
2:15 AM 19.4 °F - 17.6 °F 93% 30.03 in 4.0 mi Calm Calm - N/A   Overcast
2:35 AM 17.6 °F - 15.8 °F 93% 30.02 in 6.0 mi Calm Calm - N/A   Mostly Cloudy
2:55 AM 17.6 °F - 15.8 °F 93% 30.02 in 5.0 mi Calm Calm - N/A   Mostly Cloudy
3:15 AM 19.4 °F - 17.6 °F 93% 30.03 in 7.0 mi Calm Calm - N/A   Mostly Cloudy
3:35 AM 21.2 °F 16.4 °F 17.6 °F 86% 30.03 in 7.0 mi West 3.5 mph - N/A   Overcast
3:55 AM 19.4 °F - 17.6 °F 93% 30.03 in 5.0 mi Calm Calm - N/A Snow Light Snow
4:15 AM 19.4 °F - 17.6 °F 93% 30.03 in 5.0 mi Calm Calm - N/A Snow Light Snow
4:35 AM 17.6 °F - 15.8 °F 93% 30.03 in 3.0 mi Calm Calm - N/A Snow Light Snow
4:55 AM 19.4 °F 14.3 °F 17.6 °F 93% 30.03 in 5.0 mi South 3.5 mph - N/A   Scattered Clouds
5:15 AM 19.4 °F - 17.6 °F 93% 30.03 in 5.0 mi Calm Calm - N/A   Scattered Clouds
5:35 AM 17.6 °F 12.3 °F 15.8 °F 93% 30.03 in 4.0 mi ESE 3.5 mph - N/A   Scattered Clouds
6:55 AM 19.4 °F - 17.6 °F 93% 30.02 in 10.0 mi Calm Calm - N/A   Haze
7:45 AM 15.8 °F 10.2 °F 14.0 °F 93% 30.04 in 6.0 mi ENE 3.5 mph - N/A   Overcast
8:45 AM 17.6 °F - 15.8 °F 93% 30.07 in 5.0 mi Calm Calm - N/A   Overcast
9:50 AM 19.4 °F - 15.8 °F 86% 30.07 in 6.0 mi Calm Calm - N/A   Overcast
10:55 AM 21.2 °F - 17.6 °F 86% 30.08 in 10.0 mi Calm Calm - N/A   Overcast
11:45 AM 26.6 °F 22.6 °F 21.2 °F 80% 30.05 in 10.0 mi South 3.5 mph - N/A   Mostly Cloudy
12:45 PM 28.4 °F - 19.4 °F 69% 30.05 in 10.0 mi Calm Calm - N/A   Mostly Cloudy
2:55 PM 32.0 °F 25.6 °F 17.6 °F 55% 30.06 in 10.0 mi NE 6.9 mph - N/A   Mostly Cloudy
3:55 PM 30.2 °F 25.4 °F 15.8 °F 55% 30.06 in 10.0 mi NE 4.6 mph - N/A   Mostly Cloudy
4:50 PM 32.0 °F 28.7 °F 17.6 °F 55% 30.07 in 10.0 mi NE 3.5 mph - N/A   Overcast
4:55 PM 32.0 °F 28.7 °F 17.6 °F 55% 30.07 in 10.0 mi NE 3.5 mph - N/A   Overcast
5:15 PM 32.0 °F 25.6 °F 19.4 °F 60% 30.07 in 10.0 mi NE 6.9 mph - N/A   Overcast
5:35 PM 32.0 °F 24.8 °F 23.0 °F 69% 30.07 in 10.0 mi NNE 8.1 mph - N/A   Mostly Cloudy
5:55 PM 28.4 °F 21.2 °F 21.2 °F 74% 30.08 in 10.0 mi NNE 6.9 mph - N/A   Mostly Cloudy
6:15 PM 28.4 °F 24.6 °F 23.0 °F 80% 30.08 in 10.0 mi North 3.5 mph - N/A   Overcast
6:35 PM 26.6 °F - 21.2 °F 80% 30.09 in 10.0 mi Calm Calm - N/A   Scattered Clouds
6:55 PM 26.6 °F - 21.2 °F 80% 30.09 in 10.0 mi Calm Calm - N/A   Clear
7:15 PM 24.8 °F - 19.4 °F 80% 30.10 in 10.0 mi Calm Calm - N/A   Clear
7:35 PM 24.8 °F - 19.4 °F 80% 30.10 in 10.0 mi Calm Calm - N/A   Clear
7:55 PM 21.2 °F - 17.6 °F 86% 30.10 in 10.0 mi Calm Calm - N/A   Clear
8:15 PM 23.0 °F - 19.4 °F 86% 30.11 in 10.0 mi Calm Calm - N/A   Clear
8:35 PM 21.2 °F 16.4 °F 19.4 °F 93% 30.13 in 10.0 mi SSE 3.5 mph - N/A   Clear
8:55 PM 19.4 °F 12.8 °F 17.6 °F 93% 30.14 in 7.0 mi ESE 4.6 mph - N/A   Clear
9:15 PM 19.4 °F - 17.6 °F 93% 30.15 in 10.0 mi Calm Calm - N/A   Clear
9:35 PM 19.4 °F - 17.6 °F 93% 30.15 in 10.0 mi Calm Calm - N/A   Clear
9:55 PM 17.6 °F - 15.8 °F 93% 30.15 in 8.0 mi Calm Calm - N/A   Clear
10:15 PM 17.6 °F 10.7 °F 15.8 °F 93% 30.14 in 7.0 mi SE 4.6 mph - N/A   Clear
10:35 PM 15.8 °F - 14.0 °F 93% 30.14 in 0.8 mi Calm Calm - N/A   Mist
10:55 PM 19.4 °F 14.3 °F 17.6 °F 93% 30.15 in 10.0 mi SW 3.5 mph - N/A   Clear
11:15 PM 19.4 °F - 17.6 °F 93% 30.15 in 10.0 mi Calm Calm - N/A   Clear
11:35 PM 10.4 °F 0.8 °F 8.6 °F 92% 30.16 in 0.2 mi South 5.8 mph - N/A Fog Light Freezing Fog
11:55 PM 8.6 °F 2.0 °F 5.0 °F 85% 30.17 in 0.2 mi SW 3.5 mph - N/A Fog Light Freezing Fog